Skip Page Navigation
NASA JPL Caltech
NASA Logo - Jet Propulsion Laboratory + View the NASA Portal
+ Center for Near-Earth Object Studies
JPL Home Earth Solar System Stars & Galaxies Technology
JPL Solar System Dynamics
BODIES ORBITS EPHEMERIDES TOOLS PHYSICAL DATA DISCOVERY FAQ SITE MAP
IMPORTANT: The SSD Announcement email list is now available. Major changes are coming in the near future, including possible hostname and/or URL changes. To be notified of such changes, subscribe to this email list.

Please visit this page for more details.


JPL Small-Body Database Browser
Search: [ help ]  
49483 (1999 BP13)
Classification: Main-belt Asteroid          SPK-ID: 2049483
Ephemeris | Orbit Diagram | Orbital Elements | Mission Design | Physical Parameters | Discovery Circumstances | Close-Approach Data ]

[ show orbit diagram ]
Orbital Elements at Epoch 2458600.5 (2019-Apr-27.0) TDB
Reference: JPL 25 (heliocentric ecliptic J2000)
 Element Value Uncertainty (1-sigma)   Units 
e .2328799111836903 3.496e-08  
a 2.690132367050849 1.2536e-08 au
q 2.063654580339677 9.5729e-08 au
i 6.634030038696338 4.291e-06 deg
node 338.5550042733493 3.006e-05 deg
peri 141.8818606774222 3.136e-05 deg
M 234.7994744398669 1.035e-05 deg
tp 2459160.983139700587
(2020-Nov-07.48313970)
4.8922e-05 TDB
period 1611.606096615788
4.41
1.1265e-05
3.084e-08
d
yr
n .2233796464011672 1.5614e-09 deg/d
Q 3.316610153762022 1.5456e-08 au
  Orbit Determination Parameters
   # obs. used (total)      1823  
   data-arc span      15588 days (42.68 yr)  
   first obs. used      1977-03-26  
   last obs. used      2019-11-29  
   planetary ephem.      DE431  
   SB-pert. ephem.      SB431-N16  
   condition code      0  
   norm. resid. RMS      .47959  
   source      ORB  
   producer      Otto Matic  
   solution date      2019-Dec-14 04:20:00  

Additional Information
 Earth MOID = 1.08436 au 
 Jupiter MOID = 1.78385 au 
 T_jup = 3.323 
[ show covariance matrix ]

Ephemeris | Orbit Diagram | Orbital Elements | Mission Design | Physical Parameters | Discovery Circumstances | Close-Approach Data ]

Physical Parameter Table
Parameter Symbol Value Units Sigma Reference Notes
absolute magnitude H 13.0   n/a MPO417159  
diameter diameter 13.046 km 0.841 urn:nasa:pds:neowise_diameters_albedos::2.0[mainbelt] (http://adsabs.harvard.edu/abs/2011ApJ...741...68M)  
geometric albedo albedo 0.060   0.007 urn:nasa:pds:neowise_diameters_albedos::2.0[mainbelt] (http://adsabs.harvard.edu/abs/2011ApJ...741...68M)  

49483 (1999 BP13)          Discovered 1999-Jan-25 by Korlevic, K. at Visnjan
Reference: 20021120/Numbers.arcLast Updated: 2004-04-19

[ show close-approach data ]
Alternate Designations
 1999 BP13 = 1977 FQ2 
Ephemeris | Orbit Diagram | Orbital Elements | Mission Design | Physical Parameters | Discovery Circumstances | Close-Approach Data ]
ABOUT SSD CREDITS/AWARDS PRIVACY/COPYRIGHT GLOSSARY LINKS
FirstGov 2020-Jan-24 00:02 UT
(server date/time)  
NASA Home Page
Site Manager:   Ryan S. Park
Webmaster  Alan B. Chamberlin